TimeCST,TemperatureF,Dew PointF,Humidity,Sea Level PressureIn,VisibilityMPH,Wind Direction,Wind SpeedMPH,Gust SpeedMPH,PrecipitationIn,Events,Conditions,WindDirDegrees,DateUTC
12:15 AM,-2.2,-5.8,85,30.14,-9999.0,NNW,32.2,38.0,N/A,Rain,Freezing Rain,330,2013-02-19 06:15:00
12:35 AM,-4.0,-7.6,85,30.16,-9999.0,NNW,27.6,36.8,N/A,Rain,Freezing Rain,330,2013-02-19 06:35:00
12:55 AM,-4.0,-9.4,78,30.17,-9999.0,NNW,25.3,33.4,N/A,,Scattered Clouds,330,2013-02-19 06:55:00
1:15 AM,-4.0,-9.4,78,30.17,-9999.0,NNW,23.0,31.1,N/A,,Unknown,330,2013-02-19 07:15:00
1:35 AM,-5.8,-11.2,77,30.18,-9999.0,NNW,25.3,32.2,N/A,,Unknown,330,2013-02-19 07:35:00
1:55 AM,-5.8,-11.2,77,30.18,-9999.0,NNW,21.9,-,N/A,,Unknown,330,2013-02-19 07:55:00
2:15 AM,-7.6,-11.2,84,30.19,-9999.0,NNW,24.2,29.9,N/A,,Unknown,330,2013-02-19 08:15:00
2:35 AM,-7.6,-11.2,84,30.20,-9999.0,NW,23.0,31.1,N/A,,Unknown,320,2013-02-19 08:35:00
2:55 AM,-7.6,-13.0,77,30.20,-9999.0,NW,21.9,27.6,N/A,,Unknown,320,2013-02-19 08:55:00
3:15 AM,-7.6,-13.0,77,30.21,-9999.0,NW,24.2,29.9,N/A,,Unknown,320,2013-02-19 09:15:00
3:35 AM,-7.6,-13.0,77,30.22,-9999.0,NW,24.2,29.9,N/A,,Unknown,320,2013-02-19 09:35:00
3:55 AM,-7.6,-13.0,77,30.22,-9999.0,NW,23.0,29.9,N/A,,Unknown,320,2013-02-19 09:55:00
4:15 AM,-9.4,-14.8,77,30.22,-9999.0,NW,23.0,27.6,N/A,,Unknown,320,2013-02-19 10:15:00
4:35 AM,-9.4,-14.8,77,30.22,-9999.0,NW,24.2,31.1,N/A,,Unknown,320,2013-02-19 10:35:00
4:55 AM,-9.4,-16.6,71,30.23,-9999.0,NW,20.7,-,N/A,,Unknown,320,2013-02-19 10:55:00
5:15 AM,-9.4,-16.6,71,30.24,-9999.0,NNW,21.9,26.5,N/A,,Unknown,330,2013-02-19 11:15:00
6:15 AM,-11.2,-16.6,77,30.27,-9999.0,NW,20.7,-,N/A,,Unknown,320,2013-02-19 12:15:00
6:35 AM,-11.2,-18.4,70,30.28,-9999.0,NW,19.6,26.5,N/A,,Unknown,320,2013-02-19 12:35:00
6:55 AM,-11.2,-18.4,70,30.29,-9999.0,NNW,18.4,-,N/A,,Unknown,330,2013-02-19 12:55:00
7:15 AM,-11.2,-18.4,70,30.29,-9999.0,NW,19.6,-,N/A,,Unknown,320,2013-02-19 13:15:00
7:35 AM,-11.2,-18.4,70,30.30,-9999.0,NNW,15.0,-,N/A,,Unknown,330,2013-02-19 13:35:00
7:55 AM,-11.2,-18.4,70,30.31,-9999.0,NNW,17.3,-,N/A,,Unknown,330,2013-02-19 13:55:00
8:15 AM,-11.2,-18.4,70,30.32,-9999.0,NNW,16.1,-,N/A,,Unknown,330,2013-02-19 14:15:00
8:35 AM,-11.2,-18.4,70,30.32,-9999.0,NNW,16.1,-,N/A,,Unknown,330,2013-02-19 14:35:00
8:55 AM,-11.2,-18.4,70,30.33,-9999.0,NNW,17.3,-,N/A,,Unknown,330,2013-02-19 14:55:00
9:15 AM,-11.2,-18.4,70,30.33,-9999.0,NNW,16.1,24.2,N/A,,Unknown,330,2013-02-19 15:15:00
9:35 AM,-11.2,-16.6,77,30.33,-9999.0,NNW,20.7,-,N/A,,Unknown,330,2013-02-19 15:35:00
9:55 AM,-9.4,-16.6,71,30.33,-9999.0,NNW,20.7,-,N/A,,Unknown,340,2013-02-19 15:55:00
10:15 AM,-9.4,-16.6,71,30.35,-9999.0,NW,18.4,-,N/A,,Unknown,320,2013-02-19 16:15:00
10:35 AM,-9.4,-14.8,77,30.35,-9999.0,NW,18.4,-,N/A,,Unknown,320,2013-02-19 16:35:00
10:55 AM,-7.6,-13.0,77,30.34,-9999.0,NW,21.9,-,N/A,,Unknown,320,2013-02-19 16:55:00
11:15 AM,-7.6,-13.0,77,30.35,-9999.0,NNW,21.9,-,N/A,,Unknown,330,2013-02-19 17:15:00
11:35 AM,-9999,-9999,N/A,30.36,-9999.0,NNW,21.9,-,N/A,,Unknown,330,2013-02-19 17:35:00
11:55 AM,-4.0,-11.2,71,30.36,-9999.0,NW,18.4,-,N/A,,Unknown,320,2013-02-19 17:55:00
12:15 PM,-4.0,-11.2,71,30.36,-9999.0,NNW,20.7,-,N/A,,Unknown,330,2013-02-19 18:15:00
12:35 PM,-4.0,-9.4,78,30.35,-9999.0,NNW,18.4,-,N/A,,Unknown,340,2013-02-19 18:35:00
12:55 PM,-2.2,-9.4,71,30.35,-9999.0,NNW,20.7,-,N/A,,Unknown,340,2013-02-19 18:55:00
1:15 PM,-2.2,-7.6,78,30.35,-9999.0,NNW,18.4,-,N/A,,Unknown,340,2013-02-19 19:15:00
1:35 PM,-2.2,-7.6,78,30.35,-9999.0,NNW,20.7,-,N/A,,Unknown,330,2013-02-19 19:35:00
1:55 PM,-0.4,-7.6,72,30.36,-9999.0,NNW,18.4,-,N/A,,Unknown,340,2013-02-19 19:55:00
2:15 PM,-0.4,-7.6,72,30.36,-9999.0,NW,16.1,-,N/A,,Unknown,320,2013-02-19 20:15:00
2:35 PM,-0.4,-7.6,72,30.36,-9999.0,NNW,15.0,-,N/A,,Unknown,330,2013-02-19 20:35:00
2:55 PM,-0.4,-7.6,72,30.37,-9999.0,NW,16.1,-,N/A,,Unknown,320,2013-02-19 20:55:00
3:15 PM,-0.4,-5.8,78,30.38,-9999.0,NW,13.8,-,N/A,,Unknown,310,2013-02-19 21:15:00
3:35 PM,-0.4,-5.8,78,30.37,-9999.0,NNW,16.1,-,N/A,,Clear,330,2013-02-19 21:35:00
3:55 PM,-0.4,-5.8,78,30.37,-9999.0,NNW,15.0,-,N/A,,Unknown,330,2013-02-19 21:55:00
4:15 PM,-0.4,-5.8,78,30.37,-9999.0,NNW,12.7,-,N/A,,Unknown,330,2013-02-19 22:15:00
4:35 PM,-0.4,-5.8,78,30.38,-9999.0,NNW,11.5,-,N/A,,Unknown,330,2013-02-19 22:35:00
4:55 PM,-0.4,-5.8,78,30.37,-9999.0,NNW,10.4,-,N/A,,Unknown,330,2013-02-19 22:55:00
5:15 PM,-0.4,-7.6,72,30.37,-9999.0,NNW,11.5,-,N/A,,Unknown,330,2013-02-19 23:15:00
6:35 PM,-4.0,-11.2,71,30.37,-9999.0,NNW,8.1,-,N/A,,Unknown,330,2013-02-20 00:35:00
6:55 PM,-5.8,-11.2,77,30.38,-9999.0,NW,6.9,-,N/A,,Unknown,320,2013-02-20 00:55:00
7:15 PM,-7.6,-11.2,84,30.39,-9999.0,NW,6.9,-,N/A,,Unknown,320,2013-02-20 01:15:00
7:35 PM,-9.4,-13.0,84,30.39,-9999.0,North,9.2,-,N/A,,Unknown,360,2013-02-20 01:35:00
7:55 PM,-9.4,-13.0,84,30.39,-9999.0,North,6.9,-,N/A,,Unknown,360,2013-02-20 01:55:00
8:15 PM,-9.4,-13.0,84,30.39,-9999.0,North,6.9,-,N/A,,Unknown,350,2013-02-20 02:15:00
8:35 PM,-9.4,-13.0,84,30.39,-9999.0,North,6.9,-,N/A,,Unknown,360,2013-02-20 02:35:00
8:55 PM,-9.4,-13.0,84,30.40,-9999.0,NNW,6.9,-,N/A,,Unknown,340,2013-02-20 02:55:00
9:15 PM,-11.2,-16.6,77,30.42,-9999.0,North,5.8,-,N/A,,Unknown,350,2013-02-20 03:15:00
9:35 PM,-11.2,-16.6,77,30.42,-9999.0,North,4.6,-,N/A,,Unknown,350,2013-02-20 03:35:00
9:55 PM,-13.0,-18.4,77,30.42,-9999.0,NNE,6.9,-,N/A,,Unknown,20,2013-02-20 03:55:00
10:15 PM,-13.0,-16.6,84,30.43,-9999.0,NNW,4.6,-,N/A,,Unknown,340,2013-02-20 04:15:00
10:35 PM,-13.0,-18.4,77,30.43,-9999.0,NNE,8.1,-,N/A,,Unknown,20,2013-02-20 04:35:00
10:55 PM,-13.0,-18.4,77,30.43,-9999.0,North,5.8,-,N/A,,Unknown,10,2013-02-20 04:55:00
11:15 PM,-14.8,-18.4,84,30.43,-9999.0,North,4.6,-,N/A,,Unknown,10,2013-02-20 05:15:00
11:35 PM,-16.6,-20.2,84,30.43,-9999.0,North,3.5,-,N/A,,Unknown,10,2013-02-20 05:35:00